Theta_e
312 314 318 314 313 312 313 314 314 312 311 312 314 315 314 309 308 308 307 307 306 306 305 304 302 301 302 303 302 302 303 303 305 306 308 310 315 320 323 326 327 327 325 324
313 314 310 312 312 313 313 314 314 311 309 312 314 316 313 309 309 308 307 306 305 305 303 303 303 302 300 301 301 302 303 303 303 305 308 309 315 322 325 326 327 327 326 325
311 312 309 309 310 311 313 316 314 313 311 311 313 316 313 310 308 308 307 306 304 303 301 302 303 303 301 301 301 303 302 302 303 305 308 310 314 318 326 326 327 326 326 324
310 308 308 308 308 310 309 309 310 312 313 318 312 330 310 310 309 308 307 306 304 302 301 301 303 303 301 301 302 303 302 302 302 306 310 311 317 323 325 326 325 325 325 325
310 309 309 309 308 308 308 308 311 311 314 315 315 318 321 306 311 310 308 305 302 301 300 300 300 301 301 300 300 302 302 302 301 306 311 313 317 322 324 325 325 325 324 324
309 307 307 308 307 307 308 310 309 312 315 319 311 314 324 315 313 310 307 304 301 300 300 299 299 299 299 299 299 300 302 302 300 304 311 316 317 317 317 317 317 317 321 323
309 310 308 307 309 308 309 309 318 318 317 318 309 312 320 310 308 309 307 304 300 300 299 299 299 298 298 298 298 298 302 301 301 301 305 310 312 313 313 312 312 313 313 314
314 314 309 308 308 308 310 309 310 315 313 311 307 314 315 307 306 306 306 302 299 299 299 298 297 297 297 298 298 298 299 301 301 300 301 304 307 309 309 310 310 310 310 310
310 309 307 306 307 307 310 310 306 309 306 313 310 309 308 307 307 306 306 301 300 299 298 298 297 296 297 297 298 297 298 302 303 302 301 302 302 303 305 306 307 307 308 308
308 312 307 307 307 307 308 307 312 311 314 313 308 307 310 309 309 307 305 303 300 299 298 298 297 296 296 296 297 298 297 297 301 303 302 302 303 304 305 305 306 307 308 309
307 308 307 307 309 310 309 310 308 308 309 309 310 311 308 309 309 309 307 304 300 299 298 297 296 295 295 296 297 297 298 297 297 299 300 303 301 301 304 303 304 306 306 307
307 307 311 309 304 304 306 309 308 309 309 310 310 310 304 307 307 308 308 304 300 299 298 297 296 295 295 295 296 296 297 297 297 297 297 297 298 298 298 299 300 301 301 301
307 310 312 308 305 304 308 308 308 306 307 310 312 312 304 304 305 306 307 303 299 299 298 297 296 296 295 295 295 296 296 296 296 297 296 296 297 297 297 297 297 297 296 296
305 306 311 318 309 306 308 308 308 309 312 309 309 308 305 306 306 306 304 301 299 299 298 297 296 295 295 294 294 295 295 295 296 296 296 296 295 295 295 295 295 296 296 296
305 310 304 304 303 306 307 307 308 310 309 308 311 308 309 307 307 307 305 301 299 298 297 297 296 295 295 294 294 294 294 295 295 295 295 295 295 295 295 295 295 295 295 294
303 310 303 305 301 302 304 305 307 308 309 309 308 309 308 306 306 306 303 299 298 299 298 297 296 295 294 294 294 293 293 294 294 294 294 294 294 294 294 294 293 293 293 293
305 304 305 311 296 297 306 301 304 306 306 308 309 309 306 306 304 304 304 301 299 299 298 297 296 295 294 294 293 293 293 293 293 294 293 293 293 293 293 292 292 291 291 291
303 304 302 308 300 311 310 298 300 304 306 305 306 307 306 307 305 305 304 302 301 299 298 297 296 295 294 294 293 293 293 293 293 293 293 293 292 292 291 291 290 290 290 290
300 300 301 307 306 307 308 297 299 301 306 303 305 305 306 302 302 304 302 302 302 300 298 297 295 295 294 293 293 293 292 292 292 292 292 292 292 291 291 290 289 289 289 289
298 297 306 296 309 314 310 296 295 299 309 304 303 304 305 302 304 306 303 301 301 299 298 297 295 294 293 293 293 293 292 292 292 292 292 292 291 291 290 290 289 289 289 289
301 301 305 304 308 308 302 295 295 310 315 298 300 302 302 303 304 301 298 300 299 298 297 295 294 294 294 293 292 292 292 292 292 292 291 291 290 290 290 289 289 289 289 289
306 306 305 300 305 308 295 294 301 305 297 297 297 298 301 302 300 299 298 299 298 296 295 295 294 294 293 293 292 292 292 293 292 291 291 290 289 289 289 289 289 288 288 288
306 306 304 304 306 301 297 299 296 295 297 296 297 296 299 299 299 299 298 296 296 296 295 294 295 293 292 293 293 292 293 293 292 291 290 289 288 288 289 289 289 288 288 288
298 298 301 301 303 300 297 297 295 295 295 295 296 297 296 298 298 297 296 295 294 293 294 293 293 293 291 293 293 293 293 292 292 291 289 288 288 288 288 288 288 289 288 287
300 299 301 299 299 299 299 298 298 297 294 294 294 296 296 297 296 296 296 294 294 293 292 292 293 292 293 293 292 292 293 292 292 290 288 288 287 288 288 287 288 288 288 288
297 299 303 306 302 303 304 301 299 298 295 295 295 294 294 296 297 295 296 295 293 292 291 291 292 292 293 292 292 292 292 292 292 289 287 287 287 287 287 287 287 286 286 287
Wind_Speed
2 3 4 5 1 2 4 2 1 2 0 5 4 9 7 4 4 5 6 8 10 12 15 17 18 20 22 24 25 27 28 27 24 21 18 17 17 17 21 26 31 32 34 36
3 4 5 7 5 3 2 1 2 4 3 3 7 13 9 7 4 5 7 9 10 11 13 18 22 24 25 24 25 26 24 26 27 23 18 19 16 13 20 25 31 31 34 36
3 5 8 4 5 4 3 2 2 3 6 2 10 5 5 5 8 8 9 8 7 10 13 14 18 20 22 25 27 25 26 28 26 23 16 16 16 17 17 20 24 28 28 33
2 4 5 4 3 4 3 4 3 1 6 4 4 4 4 6 8 8 8 7 8 10 10 12 16 21 22 27 28 30 31 30 31 26 11 13 12 13 13 17 18 20 28 30
3 8 6 4 1 4 2 3 1 1 2 5 2 2 1 2 6 8 6 5 6 8 9 11 16 19 19 25 29 33 34 36 40 31 10 9 12 11 7 11 12 17 22 26
2 0 2 1 3 1 6 3 2 1 2 3 2 2 3 5 5 3 4 4 5 7 8 11 15 18 21 25 31 38 38 38 42 35 25 7 12 18 21 21 20 18 18 19
2 3 1 1 3 2 3 3 1 2 2 2 3 3 7 5 7 5 4 4 5 5 7 9 13 19 22 24 27 32 39 36 40 37 33 26 25 26 23 23 23 25 27 28
6 4 7 5 2 2 5 2 2 4 2 2 2 6 2 2 3 5 4 5 4 5 4 7 11 15 18 20 23 24 30 36 38 37 33 35 28 31 28 28 32 30 31 33
5 2 2 1 1 1 4 4 2 2 1 3 3 5 8 5 7 8 8 7 6 3 2 5 8 12 15 17 18 19 24 31 37 39 38 39 33 36 32 34 39 37 36 38
5 3 1 3 2 3 4 5 2 1 3 4 4 5 6 8 14 12 11 10 7 3 1 3 6 9 12 13 15 16 18 21 28 33 35 35 38 38 38 38 39 40 40 40
5 1 3 2 8 8 4 3 2 2 3 2 3 4 4 9 11 15 14 10 7 5 2 1 4 6 8 11 13 14 17 18 22 27 29 31 34 35 33 32 32 31 30 30
5 3 5 4 1 1 1 4 8 4 4 2 2 7 5 6 5 10 12 11 9 5 4 2 1 3 6 9 11 12 14 15 16 21 25 27 27 29 31 29 29 29 29 29
8 3 2 1 2 3 6 7 5 3 1 7 4 4 3 4 6 9 12 12 10 8 6 4 3 1 4 5 7 9 10 11 12 19 21 24 26 26 26 25 25 27 27 26
5 3 4 3 3 4 5 11 15 11 4 4 10 4 6 10 11 11 12 12 13 11 10 7 5 4 2 4 5 6 9 9 10 16 19 20 20 20 22 22 24 25 25 25
2 4 3 4 3 3 4 7 15 19 17 10 4 11 12 14 16 16 15 13 13 13 11 10 9 8 7 6 4 6 7 10 10 13 17 19 20 20 21 22 23 22 23 22
3 2 1 4 2 5 6 15 14 20 20 23 22 30 20 18 12 12 15 16 16 15 14 13 11 13 11 10 9 8 9 10 12 15 15 16 18 19 19 19 19 20 18 18
7 6 4 3 3 3 8 14 24 18 14 23 18 21 5 4 15 16 16 18 19 17 16 15 15 17 15 14 13 11 12 13 14 17 15 16 17 17 16 16 15 15 17 16
6 5 1 1 1 7 5 2 6 21 20 23 18 17 11 11 9 13 15 18 18 18 17 15 19 19 18 16 15 14 13 14 14 15 15 14 13 14 14 13 14 15 14 15
5 6 3 4 5 9 14 6 9 10 9 26 28 27 15 5 1 12 15 17 18 19 18 23 24 23 20 20 19 18 15 14 12 13 15 15 14 14 13 12 13 13 14 14
6 1 4 3 5 7 3 3 3 4 12 13 22 20 15 11 7 9 15 18 15 20 23 23 24 23 21 23 23 22 16 15 13 15 14 14 13 13 14 12 12 12 13 14
7 4 13 7 7 8 9 6 6 5 4 4 10 12 17 12 8 1 2 13 18 21 24 24 27 29 29 27 25 22 20 17 18 18 16 15 15 15 14 13 12 13 14 13
14 13 7 4 7 16 9 7 10 3 1 3 5 10 16 12 7 3 3 10 13 15 20 25 26 25 29 32 31 24 25 23 21 19 17 16 14 14 14 15 15 15 16 16
8 8 7 14 9 2 17 3 10 1 3 4 4 7 11 10 12 10 6 8 12 18 20 25 26 25 28 34 34 27 28 26 25 21 19 17 17 16 16 16 16 16 14 12
6 4 4 4 11 17 12 16 6 7 4 2 3 6 10 8 10 9 6 6 8 14 18 23 23 23 24 35 36 33 29 28 27 25 22 19 17 16 16 15 14 14 14 12
6 15 10 7 10 6 12 17 15 12 6 4 4 5 10 9 5 9 8 8 9 15 19 25 26 25 29 36 36 34 30 30 29 26 24 21 19 17 15 13 13 12 11 11
8 7 11 11 9 5 4 10 16 14 17 17 12 7 6 9 9 7 7 10 14 17 20 21 24 25 28 35 37 36 32 33 32 29 27 25 23 21 19 16 12 10 10 10
Wind_Direction
48 213 171 128 93 75 111 144 252 259 324 310 253 273 299 224 274 340 342 336 342 351 1 3 345 342 348 347 341 333 328 325 316 303 293 280 255 235 230 220 219 216 213 216
175 196 140 128 127 119 134 163 256 277 243 295 288 283 275 217 264 282 306 311 325 327 333 342 349 349 347 338 339 337 329 327 324 309 288 273 261 248 219 210 219 222 215 214
227 114 147 153 157 179 186 203 200 292 325 250 306 263 206 222 250 267 273 289 312 332 341 342 341 347 346 342 343 344 340 335 332 322 299 262 254 259 207 197 207 209 209 206
117 137 169 167 197 203 240 189 176 313 331 300 349 294 232 226 256 260 275 301 324 338 348 349 345 348 349 345 351 353 354 346 346 348 318 249 239 213 197 199 202 208 219 214
120 166 170 196 219 188 81 150 166 347 285 303 172 256 192 213 255 238 242 283 319 334 343 343 345 349 353 351 350 356 360 1 2 3 342 219 235 215 153 157 178 201 214 203
95 24 224 75 102 73 132 140 94 88 267 251 117 319 238 198 201 191 217 266 307 335 345 349 351 351 354 2 0 3 3 12 7 12 32 157 108 109 110 113 111 116 144 168
162 188 156 189 149 136 196 210 305 256 221 280 149 247 269 224 213 207 218 257 298 323 353 354 359 358 358 1 3 5 10 12 15 20 33 60 81 93 92 93 94 89 93 99
192 214 185 169 244 236 192 244 236 273 275 329 142 235 255 238 220 217 235 259 277 302 5 8 2 360 1 3 7 9 14 16 25 25 33 51 64 80 79 87 88 85 88 90
170 165 106 57 136 276 159 205 50 107 82 278 216 249 246 201 210 221 226 245 250 273 6 14 9 10 6 6 13 19 23 34 38 39 40 50 52 66 73 79 86 86 85 90
179 132 221 133 143 73 268 141 134 209 241 256 228 266 246 209 217 214 223 231 232 236 295 32 18 17 12 13 16 25 32 42 48 52 53 56 63 73 78 82 88 94 101 105
156 206 142 174 206 185 160 208 191 299 244 259 292 243 199 195 197 199 208 217 218 203 212 39 27 22 16 26 25 29 32 37 52 61 60 65 65 73 83 85 87 95 99 99
179 130 179 185 101 313 253 233 191 224 195 243 323 270 171 202 201 200 193 198 203 198 185 180 69 32 38 34 35 35 40 41 52 66 74 73 72 75 80 80 84 90 93 96
182 205 145 188 182 186 219 199 204 119 116 208 186 251 166 214 215 203 194 189 191 191 187 191 204 129 78 55 50 57 59 56 63 76 74 76 80 79 81 87 91 93 97 99
151 189 232 214 95 123 201 199 199 197 193 196 232 259 216 218 211 196 199 191 193 186 192 191 192 198 152 96 79 76 83 79 81 90 90 88 87 91 93 91 90 92 94 94
217 235 216 247 203 194 223 208 199 210 214 216 246 237 241 215 209 203 198 186 192 191 196 195 191 190 187 154 135 116 99 102 98 92 93 93 94 91 90 89 90 92 90 88
190 242 169 277 240 232 256 236 226 226 233 247 259 278 264 242 226 197 193 186 196 200 199 196 193 186 189 179 160 146 125 115 113 105 99 99 97 96 91 90 91 92 94 95
166 159 173 251 340 303 271 224 211 216 219 224 234 241 217 187 213 214 199 194 197 199 198 193 193 193 185 185 169 165 145 135 124 117 113 111 109 104 102 104 104 100 98 95
168 162 205 200 258 245 251 135 191 218 237 217 239 244 218 224 213 230 212 199 200 194 193 194 191 192 189 181 172 165 162 151 141 133 129 123 120 117 115 113 110 105 101 96
206 160 176 207 215 310 291 186 183 186 261 215 223 241 231 196 118 246 216 211 204 191 188 191 188 185 182 181 176 170 171 166 160 152 148 144 141 131 124 122 122 116 114 112
170 283 229 155 224 235 262 155 175 165 277 205 205 225 202 167 226 245 195 196 199 192 183 175 178 179 181 186 180 172 178 178 177 171 164 155 148 145 144 142 133 130 124 121
165 190 216 203 236 274 242 156 142 171 256 157 186 197 169 191 207 49 191 187 188 184 178 172 172 181 187 185 183 177 178 191 185 177 173 168 162 157 156 152 148 143 136 134
173 175 187 183 221 254 151 108 196 199 341 156 165 172 190 200 181 183 176 180 179 178 173 170 170 177 187 191 187 183 185 186 185 183 180 175 171 168 167 165 158 156 158 155
205 195 179 192 209 250 192 204 207 207 190 202 179 186 189 193 206 198 201 180 188 182 176 177 176 175 186 193 195 190 192 184 184 186 188 185 179 179 177 173 166 163 165 160
229 193 223 134 219 234 218 237 225 198 241 220 209 174 179 199 202 201 198 177 176 178 177 179 173 177 182 196 202 204 195 188 186 187 188 189 189 184 180 181 181 176 173 170
180 161 189 259 270 275 251 225 229 213 222 232 222 188 196 199 208 199 193 187 175 181 180 182 181 184 192 197 203 205 199 192 191 190 190 191 192 190 186 188 187 191 188 186
179 169 195 227 213 190 240 212 207 205 210 211 201 203 216 195 204 194 202 191 176 178 180 186 190 189 195 198 202 204 201 197 193 190 192 193 193 193 190 185 180 185 191 181